Weather History for KMRH - January, 2013

Change the Weather History Date:

Thursday, January 24, 2013

  Actual Average Record
Temperature  
Mean Temperature 38 °F -  
Max Temperature 51 °F 57 °F 74 °F (1950)
Min Temperature 26 °F 37 °F 15 °F (2003)
Degree Days  
Heating Degree Days 26    
Moisture  
Dew Point 20 °F    
Average Humidity 49    
Maximum Humidity 68    
Minimum Humidity 32    
Precipitation  
Precipitation 0.00 in - - ()
Sea Level Pressure  
Sea Level Pressure 30.25 in    
Wind  
Wind Speed 16 mph (NNW)    
Max Wind Speed 24 mph    
Max Gust Speed 33 mph    
Visibility 10 miles    
Events      
Averages and records for this station are not official NWS values.
T = Trace of Precipitation, MM = Missing Value Source: NWS Daily Summary

Daily Weather History Graph

Daily Weather History Graph

Search for Another Location

Airport or City:

Trip Planner

Search our weather history database for the weather conditions in past years. The results will help you decide how hot, cold, wet, or windy it might be!

Date:

Astronomy

Jan. 24, 2013 Rise Set
Actual Time 7:09 AM EST 5:28 PM EST
Civil Twilight 6:42 AM EST 5:55 PM EST
Nautical Twilight 6:12 AM EST 6:25 PM EST
Astronomical Twilight 5:42 AM EST 6:55 PM EST
Moon 3:29 PM EST (1/24) 5:04 AM EST (1/24)
Length of Visible Light 11h 12m
Length of Day
10h 18m
Waxing Gibbous, 94% of the Moon is Illuminated
Jan 24
Waxing Gibbous
Jan 26
Full
Feb 3
Last Quarter
Feb 10
New
Feb 17
First Quarter

Hourly Weather History & Observations

Time (EST) Temp. Windchill Dew Point Humidity Pressure Visibility Wind Dir Wind Speed Gust Speed Precip Events Conditions
12:58 AM 46.0 °F 39.9 °F 32.0 °F 58% 30.11 in 10.0 mi SW 13.8 mph 21.9 mph N/A   Clear
1:58 AM 48.0 °F - 36.0 °F 63% 30.07 in 10.0 mi SW 17.3 mph - N/A   Clear
2:58 AM 50.0 °F - 37.0 °F 61% 30.04 in 10.0 mi WSW 16.1 mph 26.5 mph N/A   Clear
3:58 AM 51.1 °F - 37.0 °F 59% 30.00 in 10.0 mi WSW 16.1 mph 27.6 mph N/A   Clear
4:58 AM 48.9 °F - 37.9 °F 66% 29.99 in 10.0 mi West 15.0 mph 23.0 mph N/A   Clear
5:58 AM 46.9 °F - 37.0 °F 68% 29.99 in 10.0 mi West 11.5 mph - N/A   Clear
6:58 AM 46.9 °F - 35.1 °F 63% 30.00 in 10.0 mi West 16.1 mph - N/A   Clear
7:58 AM 45.0 °F 37.6 °F 34.0 °F 65% 30.03 in 9.0 mi West 17.3 mph - N/A   Clear
8:58 AM 43.0 °F 33.5 °F 32.0 °F 65% 30.09 in 9.0 mi NNW 24.2 mph 32.2 mph N/A   Clear
9:58 AM 39.9 °F 30.8 °F 25.0 °F 55% 30.15 in 10.0 mi North 18.4 mph 27.6 mph N/A   Clear
10:58 AM 41.0 °F 32.2 °F 19.9 °F 43% 30.19 in 10.0 mi North 18.4 mph 29.9 mph N/A   Clear
11:58 AM 39.0 °F 29.0 °F 17.1 °F 41% 30.21 in 10.0 mi North 20.7 mph 31.1 mph N/A   Clear
12:58 PM 37.9 °F 27.1 °F 17.1 °F 43% 30.23 in 10.0 mi North 23.0 mph 29.9 mph N/A   Clear
1:58 PM 37.0 °F 26.4 °F 14.0 °F 39% 30.26 in 10.0 mi North 20.7 mph 31.1 mph N/A   Clear
2:58 PM 34.0 °F 23.4 °F 10.9 °F 38% 30.33 in 10.0 mi North 17.3 mph 33.4 mph N/A   Clear
3:58 PM 34.0 °F 22.4 °F 7.0 °F 32% 30.37 in 10.0 mi North 20.7 mph 29.9 mph N/A   Clear
4:58 PM 30.9 °F 20.2 °F 6.1 °F 35% 30.42 in 10.0 mi North 15.0 mph 24.2 mph N/A   Clear
5:58 PM 28.9 °F 16.9 °F 6.1 °F 38% 30.47 in 10.0 mi North 17.3 mph 23.0 mph N/A   Clear
6:58 PM 28.0 °F 16.5 °F 5.0 °F 38% 30.49 in 10.0 mi North 15.0 mph 24.2 mph N/A   Clear
7:58 PM 28.0 °F 17.5 °F 3.9 °F 36% 30.50 in 10.0 mi North 12.7 mph 21.9 mph N/A   Clear
8:58 PM 27.0 °F 16.7 °F 5.0 °F 39% 30.51 in 10.0 mi North 11.5 mph - N/A   Clear
9:58 PM 26.1 °F 17.6 °F 7.0 °F 44% 30.52 in 10.0 mi North 8.1 mph - N/A   Clear
10:58 PM 26.1 °F 16.2 °F 7.0 °F 44% 30.51 in 10.0 mi North 10.4 mph - N/A   Clear
11:58 PM 26.1 °F 16.2 °F 9.0 °F 49% 30.51 in 10.0 mi NNE 10.4 mph - N/A   Clear